星链-31695 (STARLINK-31695 )

导读

STARLINK-31695是美国太空探索技术公司SpaceX星链星座的卫星,于2024年4月2日发射入轨,属于星链低轨互联网星座组网卫星。星链系统旨在为全球提供高速宽带互联网服务,该卫星延续星链技术标准,承担天地互联信号转发任务,支撑星座全球覆盖能力拓展。

基本信息
目录编号:
59376
目录名称:
STARLINK-31695
国际标识:
2024-062C
轨道中心:
EARTH
卫星名称:
星链-31695
卫星全名:
星链-31695 (STARLINK-31695 )
卫星状态:
在轨 (已飞行885 天)
发射日期:
2024-04-02 UTC
国别 :
美国 (US)
星等 :
--
轨道信息
数据来源 国际轨道数据 AOE轨道数据
星历时间 2026-09-04T10:16:48+0800
9小时前
查看轨道信息
2026-09-04T00:00:00+0800
19小时前
查看轨道信息
半长轴 6840.879km 6840.848km
偏心率 0.0001346 0.0001239
轨道倾角 53.159° 53.160°
近地点辐角 86.624° 122.157°
升交点赤经 144.329° 146.332°
平近点角 273.492° 30.666°
近地点 461.821km 461.863km
远地点 463.663km 463.559km
周期 93.849分钟 93.848分钟
每日圈数 15.343872 15.343977
详细信息
固有亮度:
5
最大亮度:
0.3
卫星平台:
Starlink v2.0 mini
覆盖范围:
全球
运营商:
太空探索技术公司
运营商所在国:
美国
制造商(研发单位):
太空探索技术公司
制造商所在国:
美国
使用方式:
暂无
卫星简介
星链(Starlink)计划是由太空探索技术公司(SpaceX)提出的一个巨型低轨卫星互联网星座项目,计划在2019年至2024年间在太空搭建由约1.2万颗卫星组成的“星链”网络,其中1584颗将部署在地球上空550千米处的近地轨道,并从2020年开始工作。该卫星仍在工作。
2D轨道图
3D轨道图
轨道高度分析图
轨道倾角分析图
轨道综合分析图
查看轨道综合分析图
交会数据列表
事件ID 空间交会对象 最接近时刻(TCA) 交会距离 交会风险概率(CRP) 交会风险指数(CRI) 操作
CDM_260905-214605-937606-575221
2026-09-05T
21:46:23+0000
0.555 km
远距离
1.069341E-4 高风险 0.76
CDM_260905-232005-937606-575221
2026-09-05T
23:20:10+0000
1.318 km
极远距离
6.608236E-6 低风险 0.51
CDM_260905-014805-937606-051322
2026-09-05T
01:48:59+0000
2.314 km
极远距离
2.032236E-6 低风险 0.41
CDM_260905-201205-937606-575221
2026-09-05T
20:12:35+0000
2.316 km
极远距离
1.375674E-6 低风险 0.38
CDM_260906-142505-198405-937621
2026-09-06T
14:25:18+0000
2.824 km
极远距离
1.292341E-6 低风险 0.37
CDM_260906-104605-253905-937621
2026-09-06T
10:46:52+0000
2.645 km
极远距离
1.251699E-6 低风险 0.37
CDM_260905-092105-420705-937621
2026-09-05T
09:21:34+0000
2.773 km
极远距离
1.230034E-6 低风险 0.37
CDM_260906-082605-253905-937621
2026-09-06T
08:26:08+0000
2.686 km
极远距离
1.22122E-6 低风险 0.37
CDM_260905-204505-265905-937621
2026-09-05T
20:45:45+0000
2.651 km
极远距离
1.101924E-6 低风险 0.36